STARLINK-11185, 62588

Orbit data source: Space-Track

STARLINK-11185, 62588 is a payload satellite owned by SpaceX/Seattle (US) in LEO that was launched on Mon, 13 Jan 2025 UTC via an FALCON 9 launch vehicle from the Air Force Eastern Test Range (AFETR). Payload-class satellites include a variety of spacecraft equipped with specific instruments for various scientific and technological missions. These include communications satellites like Starlink; space stations such as the ISS; scientific satellites like the Hubble; Earth observation satellites from companies like Planet Labs, Umbra, and HawkEye 360; GPS; miniature CubeSats for education and research; and military/defense satellites.

Loading next visibility...
Identifier
62588, 2025-008B
Orbit
LEO
Country
Flag of USUS
Related business
Manufacturer
SpaceX/Seattle
Mission
Operational Commercial Communications
Bus & Motor
STARLINK V2M, Unknown motor
Mass
730 kg wet, ~700 kg dry
Launch date (UTC)
2025-01-13 (8 months ago)
Launch vehicle
FALCON 9
Launch site
Air Force Eastern Test Range (AFETR)
Object type
Payload
Rocket body
Debris
Shape & HBR
Box + 2 Pan, 14.5 m
Radar Cross Section
36.964 m², Large (>1 m²)

Expand to show TLE details & history
Last TLE update: 21 hours ago

TLE from 21 hours ago
0 STARLINK-11185
1 62588U 25008B   25242.15641581  .00296124  00000-0  22194-2 0  9994
2 62588  42.9994 200.4315 0001386 237.9482 122.1251 15.70954054 35996
Epoch: 2025-08-30T03:45Z
TLE epoch observation values (Epoch: 2025-08-30T03:45:14.325Z)
Latitude
-0.00005°
Longitude
165.527°
Altitude
356.437 km
Speed
7.697 km/s
True Right ascension
13h 21m 43s
True Declination
0° 00' 00"
Sunlit
Object was in daylight at epoch
Visualization orbit readout
Latitude
Unknown
Longitude
Unknown
Altitude
Unknown
Speed
Unknown
Apparent Right ascension
Unknown
Apparent Declination
Unknown
Sunlit
N/A
Visualization observer readout
Local Sidereal Time
16:02:57
Azimuth
Unknown
Elevation
Unknown
Doppler factor
Unknown
Orbital elements
Apogee altitude
359.085 km
Perigee altitude
357.217 km
Semi-major axis
6,736.288 km
Eccentricity
0.00014
Inclination
42.9994°
RAAN
200.4315°
Arg. of periapsis
237.9482°
True anomaly
122.13855°
Mean anomaly
122.1251°
Eccentric anomaly
122.13182°
Mean motion
3.92566 °/min
Orbital period
91.7 mins
BSTAR
0.0022194
Loading maneuver chart data...
Computing Atmospheric mass density...
Loading historical data...
Loading historical data...
Loading historical data...
Loading historical data...
Loading historical data...
Loading historical data...
Loading historical data...

Documentation

Showing up to 5 results
|